Location: Unspecified
(56.5167°N, 0.0000°E)
Time: 05:14:14
(UTC+02:00)

Okean 3 - Visible Passes

Search period start: 22 June 2018 00:00
Search period end: 02 July 2018 00:00
Orbit: 576 x 603 km, 82.5° (Epoch: 21 June)

Date Brightness Start Highest point End Pass type
(mag) Time Alt. Az. Time Alt. Az. Time Alt. Az.
22 Jun 6.1 03:36:57 10° N 03:40:09 21° ENE 03:43:21 10° ESE visible
23 Jun 5.6 03:44:48 10° N 03:48:24 27° ENE 03:51:59 10° ESE visible
24 Jun 5.1 03:52:43 10° N 03:56:36 35° ENE 04:00:28 10° SE visible
25 Jun 4.5 04:00:42 10° N 04:04:46 47° ENE 04:08:51 10° SE visible
26 Jun 6.3 02:32:59 10° NNE 02:34:45 12° NE 02:36:30 10° ENE visible
27 Jun 6.2 02:40:28 10° NNE 02:43:04 16° ENE 02:45:39 10° E visible
28 Jun 5.9 02:48:12 10° NNE 02:51:21 20° ENE 02:54:30 10° ESE visible
29 Jun 5.5 02:56:02 10° N 02:59:36 26° ENE 03:03:09 10° ESE visible
30 Jun 5.0 03:03:56 10° N 03:07:48 33° ENE 03:11:39 10° SE visible
01 Jul 4.5 03:11:54 10° N 03:15:59 45° ENE 03:20:03 10° SE visible
